Regional Weather Roundup
Issued by NWS

Home | Current Version | Previous Version | Text Only | Print | Product List | Glossary Off
Versions: 1 2 3 4 5 6 7 8 9 10 11 12 13 14 15 16 17 18 19 20 21 22 23 24 25 26 27 28 29 30 31 32 33 34 35 36 37 38 39 40 41 42 43 44 45 46 47 48 49 50

000
ASUS43 KIND 100659
RWRIN

WEATHER ROUNDUP FOR INDIANA
NATIONAL WEATHER SERVICE INDIANAPOLIS IN
300 AM EDT THU JUL 10 2014

NOTE: "FAIR" INDICATES FEW OR NO CLOUDS BELOW 12,000 FEET WITH NO
SIGNIFICANT WEATHER AND/OR OBSTRUCTIONS TO VISIBILITY.

* - STATION DOES NOT REPORT WEATHER SUCH AS PRECIPITATION OR FOG.

+ - STATION NOT QUALITY CONTROLLED BY THE NATIONAL WEATHER SERVICE.
    USE DATA WITH CAUTION...ESPECIALLY DEWPOINT AND RELATIVE
    HUMIDITY OBSERVATIONS.

INZ001>003-010>013-019-020-100800-
NORTHWEST INDIANA

CITY           SKY/WX    TMP DP  RH WIND       PRES   REMARKS
RENSSELAER +   CLEAR     59  57  94 NE3       30.09S
VALPARAISO     CLEAR     57  55  93 CALM      30.10R

$$

LMZ046-743>745-100800-
SOUTHERN LAKE MICHIGAN

STATION/POSITION TIME  TEMP WIND        PRES
                       AIR  DIR/SP/G
                 (UTC) (F)  (DEG/KT/KT) (MB)
BURNS HARBOR     0600   66  100/  4/  5 1019.3R
MICHIGAN CITY    0600   64  120/  4/  6   N/A

$$

INZ004-005-014>016-021>024-100800-
NORTH CENTRAL INDIANA

CITY           SKY/WX    TMP DP  RH WIND       PRES   REMARKS
GOSHEN         CLEAR     59  55  87 N5        30.09R
SOUTH BEND     CLEAR     57  53  86 CALM      30.09S

$$

INZ006>009-017-018-025>027-100800-
NORTHEAST INDIANA

CITY           SKY/WX    TMP DP  RH WIND       PRES   REMARKS
ANGOLA *+      CLEAR     57  54  88 CALM      30.08R
FORT WAYNE     PTCLDY    62  55  77 N3        30.08R

$$

INZ028-029-035-036-043>045-051>053-100800-
WEST CENTRAL INDIANA

CITY           SKY/WX    TMP DP  RH WIND       PRES   REMARKS
GREENCASTLE +  CLEAR     59  57  94 CALM      30.08R
LAFAYETTE      CLEAR     63  57  81 N5        30.07R
TERRE HAUTE    CLEAR     60  58  92 CALM      30.07R

$$

INZ030>032-037>040-046>048-054>057-064-065-100800-
CENTRAL INDIANA

CITY           SKY/WX    TMP DP  RH WIND       PRES   REMARKS
INDIANAPOLIS   PTCLDY    63  57  81 NW5       30.06R
-EAGLE CREEK   CLEAR     63  57  81 N3        30.07R
KOKOMO *+      CLOUDY    64  55  72 NE6       30.08S
MT COMFORT *+  CLEAR     57 N/A N/A CALM      30.07S
SHELBYVILLE    CLEAR     61  56  83 CALM      30.05R

$$

INZ033-034-041-042-049-050-058-059-100800-
EAST CENTRAL INDIANA

CITY           SKY/WX    TMP DP  RH WIND       PRES   REMARKS
MUNCIE         MOCLDY    63  59  87 CALM      30.08R

$$

INZ060-061-067>069-081>083-085>088-100800-
SOUTHWEST INDIANA

CITY           SKY/WX    TMP DP  RH WIND       PRES   REMARKS
EVANSVILLE     PTCLDY    72  61  68 N3        30.06R
HUNTINGBURG *+ CLEAR     66  61  82 N5        30.06R

$$

INZ062-063-066-070>080-084-089>092-100800-
SOUTH CENTRAL AND SOUTHEAST INDIANA

CITY           SKY/WX    TMP DP  RH WIND       PRES   REMARKS
BLOOMINGTON    CLEAR     59  57  93 CALM      30.07R
SEYMOUR +      MOCLDY    59  50  72 CALM      30.05

$$



USA.gov is the U.S. government's official web portal to all federal, state and local government web resources and services.